Regional Weather Roundup
Issued by NWS

Home | Current Version | Previous Version | Graphics & Text | Print | Product List | Glossary On
Versions: 1 2 3 4 5 6 7 8 9 10 11 12 13 14 15 16 17 18 19 20 21 22 23 24 25 26 27 28 29 30 31 32 33 34 35 36 37 38 39 40 41 42 43 44 45 46 47 48 49 50
000
ASUS43 KLMK 222210
RWRKY
KENTUCKY REGIONAL WEATHER ROUNDUP
NATIONAL WEATHER SERVICE LOUISVILLE KY
500 PM EST THU FEB 22 2018

NOTE "FAIR" INDICATES FEW OR NO CLOUDS BELOW 12,000 FEET
WITH NO SIGNIFICANT WEATHER AND/OR OBSTRUCTIONS TO VISIBILITY.

KYZ001>023-026-027-061>063-070>075-222300-
WESTERN AND SOUTH CENTRAL KENTUCKY

CITY           SKY/WX    TMP DP  RH WIND       PRES   REMARKS
PADUCAH        CLOUDY    52  47  83 S5        30.30R
HENDERSON      CLOUDY    50  47  89 N3        30.30F
OWENSBORO      CLOUDY    52  49  89 NE6       30.31S
HOPKINSVILLE   CLOUDY    57  55  92 S5        30.29S
BOWLING GREEN  CLOUDY    59  59 100 S6        30.31F
GLASGOW        RAIN     N/A N/A N/A CALM      30.31F
$$

KYZ024-025-028>034-038-045-046-053-222300-
NORTH CENTRAL KENTUCKY

CITY           SKY/WX    TMP DP  RH WIND       PRES   REMARKS
LOUISVILLE/SDF CLOUDY    51  47  86 E5        30.34F
LOUISVILLE/LOU CLOUDY    50  48  93 NE6       30.35F
FORT KNOX      CLOUDY    48  48  99 NE6       30.33S
$$

KYZ035>037-039>044-047>052-055>060-089>105-222300-
NORTHEAST KENTUCKY

CITY           SKY/WX    TMP DP  RH WIND       PRES   REMARKS
LEXINGTON      CLOUDY    50  47  89 NE9       30.35S
COVINGTON      CLOUDY    45  43  93 E10       30.37F
FRANKFORT      CLOUDY    49  44  83 NE7       30.33F
$$

KYZ054-064>069-076>088-106>120-222300-
SOUTHEAST KENTUCKY

CITY           SKY/WX    TMP DP  RH WIND       PRES   REMARKS
JACKSON        CLOUDY    59  56  89 NE3       30.36S
LONDON         FAIR      67  59  75 SW3       30.32S
SOMERSET       FAIR      63  61  94 N6        30.35R
MIDDLESBORO    CLOUDY    72  62  71 CALM      30.33F
MONTICELLO     NOT AVBL
$$





USA.gov is the U.S. government's official web portal to all federal, state and local government web resources and services.